IZ5MMH-8 Weather Reports


time (UTC)temp
C
wind
direction
speed
KPH
gust
KPH
rain 1hr
cm
rain 24hr
cm
rain mn
cm
humidity
%
barometer
mb
20260503180852 16 0.0 0.0 0.00 0.00 0.00 1019.6
20260503175852 17 0.0 0.0 0.00 0.00 0.00 1019.5
20260503174851 17 0.0 0.0 0.00 0.00 0.00 1019.4
20260503173851 19 0.0 0.0 0.00 0.00 0.00 1019.3
20260503172852 21 0.0 0.0 0.00 0.00 0.00 1019.2
20260503171852 21 0.0 0.0 0.00 0.00 0.00 1019.1
20260503170852 22 0.0 0.0 0.00 0.00 0.00 1019.2
20260503131037 33 0.0 0.0 0.00 0.00 0.00 1020.4
20260503081036 22 0.0 0.0 0.00 0.00 0.00 1021.1
20260503072037 19 0.0 0.0 0.00 0.00 0.00 1021.3
20260503071036 18 0.0 0.0 0.00 0.00 0.00 1021.5
20260503055020 11 0.0 0.0 0.00 0.00 0.00 1022.0
20260503054021 11 0.0 0.0 0.00 0.00 0.00 1022.2
20260503053020 10 0.0 0.0 0.00 0.00 0.00 1022.2
20260503052021 9 0.0 0.0 0.00 0.00 0.00 1022.3
20260503051021 8 0.0 0.0 0.00 0.00 0.00 1022.2
20260503050021 7 0.0 0.0 0.00 0.00 0.00 1022.2
20260503045021 7 0.0 0.0 0.00 0.00 0.00 1022.2
20260503044021 6 0.0 0.0 0.00 0.00 0.00 1022.2
20260503043021 6 0.0 0.0 0.00 0.00 0.00 1022.2
20260503042020 6 0.0 0.0 0.00 0.00 0.00 1022.2
20260503041021 6 0.0 0.0 0.00 0.00 0.00 1022.2
20260503040020 6 0.0 0.0 0.00 0.00 0.00 1022.2
20260503035021 5 0.0 0.0 0.00 0.00 0.00 1022.1
20260503034020 6 0.0 0.0 0.00 0.00 0.00 1022.0
20260503033020 6 0.0 0.0 0.00 0.00 0.00 1022.0
20260503032020 6 0.0 0.0 0.00 0.00 0.00 1022.0
20260503031020 6 0.0 0.0 0.00 0.00 0.00 1022.0
20260503030020 6 0.0 0.0 0.00 0.00 0.00 1022.0
20260503025020 6 0.0 0.0 0.00 0.00 0.00 1022.1
20260503024020 6 0.0 0.0 0.00 0.00 0.00 1021.9
20260503023020 6 0.0 0.0 0.00 0.00 0.00 1022.0
20260503022020 6 0.0 0.0 0.00 0.00 0.00 1021.9
20260503021020 6 0.0 0.0 0.00 0.00 0.00 1021.9
20260503020020 6 0.0 0.0 0.00 0.00 0.00 1021.9
20260503015020 6 0.0 0.0 0.00 0.00 0.00 1022.0
20260503014021 6 0.0 0.0 0.00 0.00 0.00 1022.1
20260503013020 6 0.0 0.0 0.00 0.00 0.00 1022.1
20260503012020 6 0.0 0.0 0.00 0.00 0.00 1022.3
20260503011020 7 0.0 0.0 0.00 0.00 0.00 1022.3
20260503010020 7 0.0 0.0 0.00 0.00 0.00 1022.4
20260503005020 7 0.0 0.0 0.00 0.00 0.00 1022.4
20260503004020 7 0.0 0.0 0.00 0.00 0.00 1022.4
20260503003020 7 0.0 0.0 0.00 0.00 0.00 1022.6
20260503002020 7 0.0 0.0 0.00 0.00 0.00 1022.7
20260503001020 7 0.0 0.0 0.00 0.00 0.00 1022.6
20260503000020 8 0.0 0.0 0.00 0.00 0.00 1022.7
20260502235020 8 0.0 0.0 0.00 0.00 0.00 1022.7
20260502234020 8 0.0 0.0 0.00 0.00 0.00 1022.6
20260502233020 8 0.0 0.0 0.00 0.00 0.00 1022.7
20260502232020 8 0.0 0.0 0.00 0.00 0.00 1022.8
20260502231020 8 0.0 0.0 0.00 0.00 0.00 1022.9
20260502230020 8 0.0 0.0 0.00 0.00 0.00 1023.1
20260502225019 8 0.0 0.0 0.00 0.00 0.00 1023.0
20260502224020 8 0.0 0.0 0.00 0.00 0.00 1023.1
20260502223020 8 0.0 0.0 0.00 0.00 0.00 1023.1
20260502222020 8 0.0 0.0 0.00 0.00 0.00 1023.1
20260502221020 8 0.0 0.0 0.00 0.00 0.00 1023.1
20260502220019 8 0.0 0.0 0.00 0.00 0.00 1023.0
20260502215019 9 0.0 0.0 0.00 0.00 0.00 1023.0
20260502214020 9 0.0 0.0 0.00 0.00 0.00 1022.8
20260502213019 9 0.0 0.0 0.00 0.00 0.00 1022.8
20260502212021 10 0.0 0.0 0.00 0.00 0.00 1022.8
20260502211020 9 0.0 0.0 0.00 0.00 0.00 1022.9
20260502210020 10 0.0 0.0 0.00 0.00 0.00 1022.8
20260502205020 10 0.0 0.0 0.00 0.00 0.00 1022.7
20260502204020 10 0.0 0.0 0.00 0.00 0.00 1022.8
20260502203019 11 0.0 0.0 0.00 0.00 0.00 1022.7
20260502202020 11 0.0 0.0 0.00 0.00 0.00 1022.7
20260502201019 11 0.0 0.0 0.00 0.00 0.00 1022.8
20260502200019 11 0.0 0.0 0.00 0.00 0.00 1022.8
20260502195021 12 0.0 0.0 0.00 0.00 0.00 1022.7
20260502194019 12 0.0 0.0 0.00 0.00 0.00 1022.7
20260502193019 12 0.0 0.0 0.00 0.00 0.00 1022.7
20260502192019 13 0.0 0.0 0.00 0.00 0.00 1022.5
20260502191020 14 0.0 0.0 0.00 0.00 0.00 1022.4
20260502190021 15 0.0 0.0 0.00 0.00 0.00 1022.3
20260502185020 15 0.0 0.0 0.00 0.00 0.00 1022.1
20260502184020 15 0.0 0.0 0.00 0.00 0.00 1022.0
20260502183020 16 0.0 0.0 0.00 0.00 0.00 1022.0
20260502182019 16 0.0 0.0 0.00 0.00 0.00 1021.8